[[{"header":{"parameterUnit":"m.s-1","parameterCategory":1,"la1":30.2991,"la2":30.254,"lo1":-89.0895,"lo2":-89.0444,"dy":0.0017,"dx":0.0017,"nx":28,"ny":28,"refTime":"2023-10-25T21:00:00:Z","depth":0,"parameterNumber":2,"parameterNumberName":"U-component_of_WINDS"},"data":[0,0,0,0,0,0,0,0,0,0,0,0,0,0,0,0,0,0,0,0,0,0,0,0,0,0,0,0,0,0,0,0,0,0,0,0,0,0,0,0,0,0,0,0,0,0,0,0,0,0,0,0,0,0,0,0,0,0,-4.8755,-4.8757,0,-4.8988,-4.8991,-4.8994,-4.898,-4.8977,-4.8974,-4.897,-4.9217,-4.9226,-4.9236,0,0,0,0,0,0,0,0,0,0,0,0,0,-4.8303,-4.8311,-4.8754,-4.8757,-4.876,-4.8988,-4.8991,-4.8994,-4.8981,-4.8977,-4.8973,-4.8969,-4.9214,-4.9225,-4.9237,0,0,0,0,0,0,0,0,0,0,0,0,0,-4.8514,-4.8314,-4.8754,-4.8781,-4.8786,-4.8987,-4.8991,-4.8995,-4.8982,-4.8977,-4.8972,-4.8967,-4.921,-4.9224,-4.9239,-4.9431,0,0,-4.9283,-4.9289,0,0,0,0,0,0,0,0,-4.8502,-4.8531,-4.8774,-4.8779,-4.8785,-4.895,-4.8922,-4.9141,-4.8983,-4.8908,-4.897,-4.8964,-4.9133,-4.9153,-4.9209,-4.9442,-4.9453,-4.9284,-4.9293,-4.93,-4.9304,0,0,0,0,0,0,0,-4.8488,-4.8521,-4.8847,-4.8778,-4.8784,-4.8783,-4.8808,-4.8964,-4.9046,-4.8914,-4.8913,-4.8941,-4.9135,-4.9195,-4.9214,-4.9456,-4.9284,-4.9297,-4.9306,-4.9312,-4.9861,-4.9867,0,0,0,0,0,0,-4.8466,-4.8509,-4.884,-4.8854,-4.8628,-4.8796,-4.8823,-4.8902,-4.9044,-4.9061,-4.8945,-4.8939,-4.9172,-4.9197,-4.9223,-4.9459,-4.9299,-4.9313,-4.9322,-4.9856,-4.9863,-4.9869,0,0,0,0,0,0,-4.8456,-4.8496,-4.883,-4.8681,-4.8724,-4.8809,-4.8898,-4.891,-4.8969,-4.9068,-4.9083,-4.8991,-4.9169,-4.9202,-4.9379,-4.9467,-4.932,-4.9333,-4.9849,-4.9858,-4.9866,-4.993,0,0,0,0,0,0,-4.8443,-4.8492,-4.8565,-4.8683,-4.8732,-4.8981,-4.8903,-4.8918,-4.8994,-4.8988,-4.9115,-4.9131,-4.9168,-4.9357,-4.9393,-4.9484,-4.9344,-4.9841,-4.9853,-4.9863,-4.9921,-4.994,-4.9957,0,0,0,0,0,-4.8427,-4.8575,-4.8568,-4.8608,-4.8824,-4.8985,-4.9014,-4.9051,-4.9001,-4.9075,-4.9139,-4.9127,-4.9451,-4.9375,-4.9416,-4.9513,-4.9836,-4.9849,-4.9862,-4.9913,-4.9936,-4.9956,0,0,0,0,0,0,-4.8467,-4.8591,-4.8585,-4.8774,-4.8869,-4.8983,-4.9078,-4.9075,-4.9188,-4.9179,-4.9223,-4.9251,-4.9429,-4.9488,-4.9402,-4.9707,-4.9637,-4.9659,-4.9662,-4.9685,-4.9703,-4.9686,-4.9357,0,0,0,0,0,-4.8497,-4.8616,-4.8719,-4.8876,-4.8924,-4.8993,-4.9065,-4.9085,-4.9186,-4.9227,-4.9303,-4.9404,-4.9528,-4.961,-4.973,-4.9929,-4.9957,-5.0015,-5.0033,-5.0048,-5.0067,-5.0178,-5.0206,-4.9912,-4.9912,-4.9912,0,0,-4.8562,-4.8644,-4.8717,-4.8886,-4.8962,-4.9087,-4.9027,-4.9161,-4.9254,-4.9248,-4.9419,-4.9479,-4.9594,-4.9783,-4.987,-4.9838,-5.0154,-5.0064,-5.0075,-5.0087,-5.0195,-5.0222,-5.0247,-4.9921,-4.992,-4.9918,0,0,-4.8743,-4.8817,-4.8956,-4.9033,-4.9148,-4.9193,-4.9226,-4.9341,-4.938,-4.9552,-4.955,-4.9663,-4.9876,-4.9959,-5.0028,-5.0241,-5.0236,-5.0279,-5.0374,-5.0483,-5.0506,-5.0527,-5.0604,-5.0632,-5.0298,-5.0298,-5.0298,0,-4.881,-4.8995,-4.9029,-4.9164,-4.924,-4.9237,-4.938,-4.9454,-4.9603,-4.9657,-4.9618,-4.9886,-4.9963,-5.0172,-5.0224,-5.028,-5.0322,-5.0266,-5.0499,-5.052,-5.054,-5.0615,-5.0644,-5.0303,-5.0302,-5.0302,-5.0301,0,-4.9072,-4.9201,-4.93,-4.9442,-4.9529,-4.9667,-4.9724,-4.9808,-4.9821,-4.9871,-5.0047,-5.014,-5.0279,-5.033,-5.0345,-5.0542,-5.0518,-5.0489,-5.042,-5.0572,-5.0644,-5.0672,-5.0309,-5.0308,-5.0306,-5.0305,0,0,-4.9287,-4.9444,-4.9481,-4.9545,-4.9672,-4.9774,-4.9913,-5.0047,-5.0119,-5.0222,-5.0341,-5.0521,-5.0495,-5.0574,-5.0599,-5.0693,-5.0858,-5.0653,-5.0656,-5.0689,-5.1084,-5.1106,-5.1138,-5.0854,-5.086,-5.0864,-5.1074,0,-4.9482,-4.9726,-4.9761,-4.9978,-5.0099,-5.0098,-5.022,-5.0312,-5.0362,-5.0474,-5.053,-5.0658,-5.0612,-5.066,-5.0754,-5.0818,-5.0938,-5.0803,-5.0969,-5.0974,-5.0941,-5.1175,-5.1199,-5.1393,-5.1102,-5.1107,-5.111,0,-4.9743,-4.9852,-5.008,-5.019,-5.0242,-5.0351,-5.0477,-5.0582,-5.0688,-5.0718,-5.0806,-5.0819,-5.0966,-5.0889,-5.1094,-5.1001,-5.1071,-5.1113,-5.1121,-5.114,-5.1052,-5.1202,-5.1456,-5.1485,-5.1154,-5.1151,-5.1148,0,-4.9879,-5.0081,-5.0244,-5.03,-5.0433,-5.0509,-5.0568,-5.0668,-5.0747,-5.0858,-5.091,-5.1037,-5.1108,-5.1207,-5.1255,-5.1194,-5.1457,-5.1384,-5.1488,-5.1487,-5.1545,-5.1541,-5.1816,-5.1587,-5.1587,-5.1586,-5.1586,0,-5.0095,-5.0235,-5.0307,-5.0407,-5.0565,-5.0605,-5.076,-5.0818,-5.0907,-5.102,-5.1028,-5.1135,-5.119,-5.1306,-5.1345,-5.1509,-5.1541,-5.1571,-5.158,-5.1572,-5.1568,-5.1619,-5.1608,-5.1594,-5.1592,-5.1591,-5.1589,0,-5.0273,-5.0326,-5.0504,-5.0615,-5.0646,-5.0758,-5.0854,-5.0953,-5.1001,-5.1145,-5.1181,-5.1259,-5.1396,-5.1453,-5.1622,-5.1648,-5.1837,-5.1835,-5.1801,-5.1804,-5.1906,-5.1896,-5.2225,-5.227,-5.201,-5.2012,-5.2014,0,-5.0408,-5.0515,-5.0637,-5.0712,-5.0773,-5.0895,-5.0975,-5.1018,-5.1101,-5.1229,-5.1314,-5.145,-5.1561,-5.1781,-5.1854,-5.1984,-5.1986,-5.2092,-5.2006,-5.1994,-5.199,-5.1983,-5.1995,-5.2108,-5.2111,-5.2113,-5.2115,0,-5.0642,-5.0663,-5.0776,-5.09,-5.0994,-5.1094,-5.1192,-5.1254,-5.1312,-5.1406,-5.1545,-5.1631,-5.1802,-5.1939,-5.2072,-5.2136,-5.2137,-5.2141,-5.2173,-5.2166,-5.2142,-5.2158,-5.1846,-5.2134,-5.2132,-5.2131,-5.213,-5.2129,-5.0804,-5.09,-5.1001,-5.1127,-5.1205,-5.1296,-5.1394,-5.1455,-5.157,-5.1712,-5.1731,-5.188,-5.1984,-5.2163,-5.2233,-5.2352,-5.2325,-5.237,-5.2382,-5.2393,-5.24,-5.2121,-5.2376,-5.2376,-5.2376,-5.2375,-5.2375,0,-5.104,-5.1105,-5.122,-5.1356,-5.1456,-5.1444,-5.1552,-5.1637,-5.1767,-5.1863,-5.1972,-5.2133,-5.2265,-5.2348,-5.2482,-5.2562,-5.2566,-5.2596,-5.2591,-5.2607,-5.2416,-5.2376,-5.2591,-5.2591,-5.2591,-5.2591,-5.259,-5.259,-5.1175,-5.1337,-5.137,-5.1571,-5.1636,-5.178,-5.1843,-5.1927,-5.2004,-5.2182,-5.2291,-5.2344,-5.2436,-5.2576,-5.2698,-5.2719,-5.2769,-5.2802,-5.2822,-5.2642,-5.262,-5.2599,-5.2561,-5.2812,-5.2812,-5.3003,-5.3005,-5.3006]},{"header":{"parameterUnit":"m.s-1","parameterCategory":1,"la1":30.2991,"la2":30.254,"lo1":-89.0895,"lo2":-89.0444,"dy":0.0017,"dx":0.0017,"nx":28,"ny":28,"refTime":"2023-10-25T21:00:00:Z","depth":0,"parameterNumber":3,"parameterNumberName":"V-component_of_WINDS"},"data":[0,0,0,0,0,0,0,0,0,0,0,0,0,0,0,0,0,0,0,0,0,0,0,0,0,0,0,0,0,0,0,0,0,0,0,0,0,0,0,0,0,0,0,0,0,0,0,0,0,0,0,0,0,0,0,0,0,0,0.7326,0.7329,0,0.7653,0.7657,0.7661,0.7791,0.7791,0.779,0.7789,0.8131,0.814,0.815,0,0,0,0,0,0,0,0,0,0,0,0,0,0.682,0.6829,0.7325,0.7329,0.7334,0.7653,0.7657,0.7662,0.7792,0.7791,0.779,0.7789,0.8127,0.8139,0.8151,0,0,0,0,0,0,0,0,0,0,0,0,0,0.7083,0.6832,0.7325,0.7437,0.745,0.7652,0.7657,0.7663,0.7792,0.7791,0.7789,0.7788,0.8124,0.8138,0.8153,0.8269,0,0,0.8198,0.8204,0,0,0,0,0,0,0,0,0.7068,0.7101,0.7416,0.7429,0.7445,0.768,0.7605,0.7866,0.7792,0.7662,0.7789,0.7788,0.7982,0.8009,0.8073,0.8285,0.83,0.8199,0.8208,0.8215,0.8219,0,0,0,0,0,0,0,0.705,0.7088,0.7455,0.7421,0.7438,0.7473,0.7509,0.7655,0.7825,0.7673,0.7684,0.772,0.799,0.8058,0.8082,0.8305,0.8199,0.8212,0.8221,0.8227,0.8635,0.8637,0,0,0,0,0,0,0.7012,0.7072,0.7445,0.7465,0.7249,0.7483,0.7524,0.7606,0.7824,0.7856,0.7721,0.7725,0.8034,0.8065,0.8094,0.825,0.8214,0.8228,0.8237,0.8633,0.8636,0.8638,0,0,0,0,0,0,0.7,0.7044,0.7432,0.7272,0.7324,0.7493,0.7585,0.7613,0.7682,0.786,0.7892,0.7759,0.8034,0.8074,0.8226,0.8263,0.8235,0.8248,0.8631,0.8634,0.8637,0.8558,0,0,0,0,0,0,0.6985,0.7039,0.7083,0.7271,0.7332,0.7555,0.7587,0.762,0.7706,0.7715,0.7904,0.7935,0.8036,0.8203,0.824,0.8283,0.826,0.8628,0.8632,0.8636,0.8558,0.8557,0.8557,0,0,0,0,0,0.6967,0.7047,0.7084,0.7128,0.739,0.7556,0.7591,0.7704,0.7708,0.7756,0.7871,0.7929,0.8252,0.8217,0.8261,0.8308,0.8627,0.8631,0.8635,0.8558,0.8558,0.8557,0,0,0,0,0,0,0.686,0.7074,0.7117,0.7261,0.7389,0.7578,0.7641,0.77,0.7831,0.7834,0.797,0.8012,0.8154,0.8246,0.8203,0.8435,0.8444,0.8457,0.837,0.8371,0.8371,0.8348,0.8272,0,0,0,0,0,0.6853,0.6968,0.715,0.7259,0.7321,0.7469,0.7546,0.7623,0.7762,0.7818,0.7944,0.8079,0.8212,0.8296,0.8428,0.8571,0.8617,0.8625,0.8625,0.8624,0.8635,0.8723,0.873,0.8652,0.8652,0.8652,0,0,0.684,0.6971,0.7036,0.7241,0.735,0.7469,0.7515,0.7638,0.7729,0.7837,0.7989,0.8086,0.8246,0.8395,0.8467,0.8477,0.8667,0.863,0.8627,0.864,0.8728,0.8735,0.8742,0.8655,0.8655,0.8654,0,0,0.6878,0.6987,0.7092,0.72,0.7364,0.7462,0.7487,0.7668,0.7737,0.7891,0.7976,0.8087,0.8311,0.8423,0.851,0.8593,0.8653,0.8632,0.8632,0.8716,0.8723,0.8729,0.8763,0.8773,0.8642,0.8642,0.8641,0,0.6842,0.7023,0.7139,0.726,0.735,0.7451,0.7561,0.7661,0.7859,0.7921,0.7927,0.8214,0.8329,0.8508,0.8528,0.8593,0.863,0.8612,0.8712,0.8719,0.8727,0.8761,0.8773,0.8638,0.8639,0.8639,0.8639,0,0.6973,0.7098,0.7163,0.7352,0.7449,0.7563,0.77,0.7785,0.7853,0.7952,0.8111,0.8252,0.8416,0.8463,0.8531,0.8654,0.8655,0.8684,0.8697,0.8729,0.8764,0.8778,0.8634,0.8635,0.8636,0.8637,0,0,0.6953,0.7206,0.7229,0.7318,0.7506,0.7607,0.7727,0.7887,0.7959,0.8093,0.8201,0.8389,0.8419,0.8517,0.8598,0.8671,0.8735,0.8694,0.87,0.87,0.8885,0.8864,0.8877,0.8774,0.8777,0.8779,0.8873,0,0.702,0.7238,0.7348,0.752,0.764,0.7739,0.7846,0.7975,0.8071,0.8189,0.8296,0.8429,0.8456,0.8516,0.8593,0.871,0.8774,0.8705,0.888,0.8885,0.8841,0.8895,0.8873,0.8954,0.8887,0.8889,0.8891,0,0.7126,0.7259,0.7443,0.7622,0.7677,0.7769,0.7927,0.8036,0.8187,0.8252,0.8362,0.8442,0.8578,0.8577,0.8768,0.8718,0.8797,0.8865,0.8871,0.8895,0.8892,0.8924,0.8982,0.8996,0.8913,0.8911,0.8909,0,0.7098,0.7323,0.7464,0.7537,0.7747,0.7812,0.7903,0.8052,0.8142,0.828,0.8341,0.8492,0.8577,0.8694,0.8815,0.8802,0.8995,0.9004,0.9058,0.9055,0.9096,0.9093,0.9172,0.9139,0.9139,0.9139,0.9138,0,0.7163,0.7273,0.7455,0.7542,0.767,0.7796,0.792,0.8019,0.8151,0.8262,0.8357,0.846,0.8611,0.8733,0.8828,0.8975,0.9011,0.9071,0.9096,0.9065,0.9058,0.9121,0.912,0.9142,0.9141,0.9141,0.914,0,0.7154,0.728,0.7441,0.7628,0.7678,0.7764,0.7926,0.8017,0.8117,0.8257,0.8297,0.8457,0.8607,0.8738,0.8935,0.9,0.9152,0.9179,0.91,0.9115,0.9162,0.9158,0.9288,0.9314,0.9258,0.9259,0.9259,0,0.7189,0.7276,0.7473,0.7553,0.7643,0.7771,0.7864,0.7993,0.8086,0.8266,0.8336,0.8492,0.8624,0.8859,0.8995,0.9148,0.9183,0.9218,0.9207,0.9175,0.919,0.9185,0.9197,0.9219,0.9219,0.9219,0.9219,0,0.7238,0.7297,0.7426,0.7579,0.7687,0.7813,0.7942,0.8003,0.8157,0.8258,0.8412,0.8514,0.8717,0.8873,0.9041,0.9139,0.9207,0.9221,0.9243,0.9214,0.9167,0.9198,0.9105,0.9218,0.9218,0.9218,0.9218,0.9218,0.7256,0.734,0.7493,0.7635,0.7746,0.7865,0.7961,0.8074,0.8204,0.8379,0.8447,0.8605,0.8759,0.8992,0.909,0.9218,0.923,0.9259,0.9268,0.9274,0.9271,0.9142,0.9248,0.9249,0.9249,0.9249,0.9249,0,0.7314,0.7418,0.7547,0.7726,0.7839,0.789,0.8037,0.8129,0.8267,0.8403,0.8531,0.8711,0.8863,0.9012,0.9173,0.9247,0.9283,0.9286,0.9284,0.9307,0.9249,0.9217,0.9255,0.9255,0.9255,0.9255,0.9255,0.9255,0.7358,0.7504,0.7582,0.7786,0.789,0.8045,0.8125,0.8238,0.8348,0.8544,0.8671,0.8766,0.8909,0.9082,0.9226,0.9266,0.9323,0.9319,0.9367,0.9312,0.931,0.9308,0.9278,0.9329,0.9329,0.9415,0.9416,0.9417]}]]